This is the latest recevied weather packets stored in our database for station/object IK1PCD-11. If no packets are shown the sender has not sent any weather packets the latest 10 day(s).
| Time | Temp. | Humidity | Pressure | Rain* | Wind** | Luminosity | Snow |
|---|---|---|---|---|---|---|---|
| 1788176354 | 23.89° C | 100% | 1019.2 hPa | - | - | - | - |
| 1788175454 | 23.89° C | 100% | 1019.2 hPa | - | - | - | - |
| 1788174554 | 23.89° C | 100% | 1019.4 hPa | - | - | - | - |
| 1788172753 | 23.33° C | 100% | 1019.4 hPa | - | - | - | - |
| 1788171853 | 22.22° C | 100% | 1019.4 hPa | - | - | - | - |
| 1788170953 | 21.11° C | 100% | 1019.6 hPa | - | - | - | - |
| 1788170053 | 20.56° C | 100% | 1019.6 hPa | - | - | - | - |
| 1788169152 | 20° C | 100% | 1019.5 hPa | - | - | - | - |
| 1788168252 | 19.44° C | 100% | 1020 hPa | - | - | - | - |
| 1788167352 | 18.89° C | 100% | 1020.2 hPa | - | - | - | - |
| 1788164650 | 16.11° C | 100% | 1020.1 hPa | - | - | - | - |
| 1788163750 | 15.56° C | 100% | 1020.1 hPa | - | - | - | - |
| 1788162863 | 15° C | 100% | 1019.8 hPa | - | - | - | - |
| 1788161963 | 14.44° C | 100% | 1019.9 hPa | - | - | - | - |
| 1788161062 | 13.89° C | 100% | 1019.8 hPa | - | - | - | - |
| 1788160162 | 13.33° C | 100% | 1019.7 hPa | - | - | - | - |
| 1788159262 | 12.78° C | 100% | 1019.7 hPa | - | - | - | - |
| 1788158362 | 12.22° C | 100% | 1019.6 hPa | - | - | - | - |
| 1788157462 | 11.67° C | 100% | 1019.5 hPa | - | - | - | - |
| 1788156562 | 11.11° C | 100% | 1019.3 hPa | - | - | - | - |
| 1788155662 | 11.11° C | 100% | 1019.1 hPa | - | - | - | - |
| 1788154762 | 10.56° C | 100% | 1018.9 hPa | - | - | - | - |
| 1788153862 | 10.56° C | 100% | 1018.9 hPa | - | - | - | - |
| 1788150253 | 11.11° C | 100% | 1018.5 hPa | - | - | - | - |
| 1788149353 | 11.11° C | 100% | 1018.6 hPa | - | - | - | - |
* Rain since midnight (hover to see other rain measurements)
** Current wind speed in m/s (hover to see current wind gust speed)